カタログに戻る

COSMOS 2084

運用中軍事VLEO
NORAD 20663·PAYLOAD·🇷🇺 Russia

打ち上げ Jun 21, 1990 から Plesetsk Cosmodrome

Loading…

次のパス (今後24時間)

TLE

最新Source: Space-Track

元期: Sep 14, 2026, 03:40 UTC

1 20663U 90055A   26257.15277966  .00001635  00000-0  12389-3 0  9992
2 20663  62.7887  52.3604 0016953 348.2530  11.8173 15.06423539964701

AllMySatでCOSMOS 2084をリアルタイム追跡

Download on the App Store